Skip Page Navigation
NASA JPL Caltech
NASA Logo - Jet Propulsion Laboratory + View the NASA Portal
+ Center for Near-Earth Object Studies
JPL Home Earth Solar System Stars & Galaxies Technology
JPL Solar System Dynamics
BODIES ORBITS EPHEMERIDES TOOLS PHYSICAL DATA DISCOVERY FAQ SITE MAP
JPL Small-Body Database Browser
Search: [ help ]  
359427 (2010 LD82)
Classification: Main-belt Asteroid          SPK-ID: 2359427
Ephemeris | Orbit Diagram | Orbital Elements | Mission Design | Physical Parameters | Discovery Circumstances | Close-Approach Data ]

[ hide orbit diagram ]

For accurate long-term ephemerides, please instead use our Horizons system.This orbit viewer was implemented using two-body methods, and hence should not be used for determining accurate long-term trajectories (over several years or decades) or planetary encounter circumstances.


[ revert to old Java-based viewer ]

Orbital Elements at Epoch 2459000.5 (2020-May-31.0) TDB
Reference: JPL 7 (heliocentric ecliptic J2000)
 Element Value Uncertainty (1-sigma)   Units 
e .2531873708170488 5.7612e-07  
a 3.152596746062145 2.1114e-07 au
q 2.354399064680288 1.6679e-06 au
i 17.31865496147667 9.2065e-06 deg
node 315.7890112351359 3.7888e-05 deg
peri 13.05895007914393 4.5459e-05 deg
M 278.7797729935019 9.555e-05 deg
tp 2459461.778018581124
(2021-Sep-04.27801858)
0.00058733 TDB
period 2044.565655743844
5.60
0.0002054
5.624e-07
d
yr
n .1760765172733113 1.7689e-08 deg/d
Q 3.950794427444003 2.646e-07 au
  Orbit Determination Parameters
   # obs. used (total)      134  
   data-arc span      4942 days (13.53 yr)  
   first obs. used      2004-07-12  
   last obs. used      2018-01-22  
   planetary ephem.      DE431  
   SB-pert. ephem.      SB431-N16  
   condition code      0  
   norm. resid. RMS      .6118  
   source      ORB  
   producer      Otto Matic  
   solution date      2018-Oct-04 11:21:22  

Additional Information
 Earth MOID = 1.3456 au 
 Jupiter MOID = 1.42128 au 
 T_jup = 3.088 
[ show covariance matrix ]

Ephemeris | Orbit Diagram | Orbital Elements | Mission Design | Physical Parameters | Discovery Circumstances | Close-Approach Data ]

Physical Parameter Table
Parameter Symbol Value Units Sigma Reference Notes
absolute magnitude H 15.6   n/a MPO434266  
diameter diameter 2.014 km 0.220 urn:nasa:pds:neowise_diameters_albedos::2.0[mainbelt] (http://adsabs.harvard.edu/abs/2011ApJ...741...68M)  
geometric albedo albedo 0.190   0.055 urn:nasa:pds:neowise_diameters_albedos::2.0[mainbelt] (http://adsabs.harvard.edu/abs/2011ApJ...741...68M)  

359427 (2010 LD82)          Discovered 2010-Jun-11 by WISE at WISE
Reference: 20130327/Numbers.arcLast Updated: 2013-03-29

[ show close-approach data ]
Ephemeris | Orbit Diagram | Orbital Elements | Mission Design | Physical Parameters | Discovery Circumstances | Close-Approach Data ]
ABOUT SSD CREDITS/AWARDS PRIVACY/COPYRIGHT GLOSSARY LINKS
FirstGov 2020-Jul-09 15:51 UT
(server date/time)  
NASA Home Page
Site Manager:   Ryan S. Park
Webmaster  Alan B. Chamberlin